Home   Weather   Tucumán   Past weeks

Flag for Argentina Past Weather in Tucumán, Tucumán, Argentina — Yesterday and Last 2 Weeks

59 °F

Mostly cloudy.

Feels Like: 57 °F
Forecast: N/A
Wind: 12 mph from Southwest

Location: Tucuman Aerodrome

Current Time: Oct 20, 2016 at 6:36:38 PM

Latest Report: Oct 20, 2016 at 6:00 PM

Visibility: 5 mi

Pressure: 30.09 "Hg

Humidity: 77%

Dew Point: 52 °F

Location of TucumánLocation

Past Weather in Tucumán — Graph


Tucumán Temperature Yesterday

Maximum temperature yesterday: 70 °F (at 3:00 PM)
Minimum temperature yesterday: 59 °F (at 2:00 AM)
Average temperature yesterday: 63 °F

High & Low Weather Summary for the Past Weeks

High97 °F (Oct 15, 5:00 PM)100% (Oct 8, 9:00 PM)30.21 "Hg (Oct 8, 9:00 PM)
Low50 °F (Oct 6, 7:00 AM)26% (Oct 6, 4:00 PM)29.47 "Hg (Oct 15, 5:00 PM)
Average69 °F71%29.89 "Hg
* Reported Oct 5 5:00 PM — Oct 20 5:00 PM, Tucumán, Weather by CustomWeather, © 2016

Note: Actual official high and low records may vary slightly from our data, if they occured in-between our weather recording intervals... More about our weather records


Tucumán Weather History for the Previous 24 Hours

Scroll right to see more
Time TempWeatherWind HumidityBarometerVisibility
5:00 PM
Thu, Oct 20
61 °FMore clouds than sun.9 mph72%30.09 "Hg5 mi
4:00 PM63 °FMore clouds than sun.2 mph68%30.09 "Hg5 mi
3:00 PM63 °FBroken clouds.5 mph68%30.12 "Hg5 mi
2:00 PM61 °FMore clouds than sun.8 mph72%30.12 "Hg5 mi
1:00 PM61 °FMore clouds than sun.7 mph72%30.15 "Hg5 mi
12:00 PM61 °FMostly cloudy.8 mph77%30.18 "Hg5 mi
11:00 AM61 °FMostly cloudy.7 mph77%30.18 "Hg5 mi
10:00 AM61 °FMostly cloudy.7 mph77%30.21 "Hg5 mi
9:00 AM61 °FMore clouds than sun.7 mph77%30.21 "Hg5 mi
8:00 AM61 °FMore clouds than sun.6 mph72%30.18 "Hg5 mi
7:00 AM59 °FOvercast.7 mph82%30.18 "Hg5 mi
6:00 AM59 °FOvercast.7 mph82%30.15 "Hg5 mi
5:00 AM61 °FOvercast.5 mph83%30.12 "Hg5 mi
4:00 AM61 °FOvercast.5 mph83%30.12 "Hg5 mi
2:00 AM63 °FOvercast.No wind77%30.12 "Hg5 mi
1:00 AM63 °FOvercast.5 mph83%30.12 "Hg5 mi
12:00 AM63 °FOvercast.5 mph83%30.12 "Hg6 mi
11:00 PM
Wed, Oct 19
64 °FMostly cloudy.5 mph78%30.12 "Hg6 mi
10:00 PM64 °FMostly cloudy.5 mph78%30.09 "Hg6 mi
9:00 PM64 °FMostly cloudy.3 mph73%30.07 "Hg5 mi
8:00 PM64 °FMostly cloudy.7 mph73%30.04 "Hg5 mi
7:00 PM66 °FMore clouds than sun.10 mph68%30.01 "Hg5 mi
6:00 PM66 °FBroken clouds.9 mph68%29.98 "Hg5 mi
Weather by CustomWeather, © 2016

See weather overviewHow to use our weather pages